Wind_Speed
4 4 5 6 7 9 10 11 14 16 17 15 13 10 8 6 5 4 3 4 5 3 2 8 10 13 8 8 6 3 4 10 6 9 11 9 9 6 9 12 8 3 2 12 9
5 5 5 6 8 11 11 13 16 17 16 14 12 10 7 6 4 4 1 5 5 4 6 12 1 12 8 6 6 9 2 9 10 10 10 9 8 8 7 8 9 12 12 8 11
6 6 6 7 9 12 13 15 17 17 16 14 12 9 9 10 9 4 5 7 5 4 7 6 8 3 9 6 2 8 9 8 8 7 8 8 7 9 9 9 8 12 4 6 13
7 7 7 8 10 12 14 16 17 16 15 13 11 11 10 10 6 10 7 7 9 4 9 6 6 9 13 3 4 3 3 4 7 7 7 7 8 5 11 7 6 11 2 4 11
8 8 8 8 11 13 14 15 16 16 14 12 10 10 10 9 5 4 5 7 8 10 13 7 13 7 5 3 4 8 5 5 5 6 6 6 4 6 3 5 9 13 6 9 14
9 9 9 9 11 14 14 15 15 15 13 11 9 10 8 5 11 5 4 6 10 7 8 6 2 11 9 3 8 2 3 6 4 5 4 7 3 4 4 6 10 13 13 12 13
10 10 10 10 12 14 14 15 14 13 12 11 10 10 5 1 6 7 4 7 8 5 2 8 3 3 8 7 7 12 5 5 4 5 6 8 7 8 13 7 8 10 11 11 12
11 11 11 11 13 15 14 14 13 13 12 11 9 6 6 3 7 7 5 3 3 2 6 6 9 5 5 5 9 16 2 4 7 6 4 9 10 8 10 11 9 8 8 11 12
12 12 12 12 14 16 16 13 14 13 12 11 9 6 2 5 4 4 7 2 6 6 8 9 8 13 5 7 12 9 2 10 12 17 11 12 14 11 5 13 13 11 9 10 12
13 13 13 13 15 17 17 14 13 13 13 13 5 3 3 2 5 7 8 8 6 7 9 10 11 15 2 8 5 5 9 9 15 1 9 6 8 8 14 8 25 15 14 11 11
13 13 13 14 16 18 19 16 11 9 12 10 7 3 3 5 7 8 9 8 5 6 10 11 10 3 10 9 5 11 1 7 3 6 7 5 8 7 11 6 18 15 16 15 12
13 14 14 15 17 19 21 19 4 3 10 6 5 7 3 7 3 5 9 6 8 10 12 7 2 3 6 4 8 9 11 9 4 5 3 4 10 6 5 9 5 6 15 16 17
14 14 14 15 17 19 24 10 18 9 7 11 11 7 7 7 5 5 8 8 5 6 5 6 1 3 4 4 4 7 9 9 8 5 1 2 9 9 4 5 2 3 9 11 15
14 15 15 16 18 17 15 9 15 16 4 10 10 7 10 9 7 9 7 6 3 8 3 4 4 1 3 5 7 7 8 9 10 4 4 4 8 4 9 3 3 2 2 5 16
15 15 17 21 22 20 8 15 17 6 4 8 10 7 8 11 6 8 8 7 5 3 3 2 2 6 9 4 6 9 10 9 10 8 1 7 12 10 4 6 8 9 5 4 9
16 17 19 22 24 19 20 18 12 5 5 11 11 11 13 8 8 7 8 7 6 4 7 10 9 6 7 5 6 11 14 14 17 17 8 8 6 10 9 4 4 4 5 4 7
16 18 21 22 18 22 19 15 6 10 7 10 10 12 13 11 12 6 6 11 8 6 16 13 16 8 6 6 9 12 15 6 7 4 4 5 4 11 10 6 4 5 8 13 13
18 21 23 24 22 23 20 8 11 3 9 9 13 11 15 12 10 7 12 6 5 11 19 8 4 7 4 5 9 9 9 18 12 9 4 2 5 8 7 5 5 4 10 12 14
19 21 21 19 21 20 15 11 7 2 3 7 15 13 11 9 11 8 13 9 9 10 19 12 7 1 9 5 6 7 13 16 12 16 8 7 13 14 7 6 3 9 11 12 10
20 18 18 19 20 19 8 10 7 0 2 9 8 8 16 11 11 9 8 3 3 2 6 9 11 3 1 7 11 7 9 11 10 5 7 13 11 13 7 3 10 12 13 9 7
20 11 11 18 19 18 15 7 2 3 4 6 10 5 12 8 10 9 5 3 6 6 5 7 10 14 6 10 8 7 9 16 16 10 7 10 11 9 5 7 10 12 13 14 10
22 6 13 17 13 14 14 9 7 3 5 3 3 4 6 7 6 8 10 5 3 4 10 11 14 16 17 18 9 12 13 12 14 15 17 20 19 11 9 5 9 13 11 14 17
16 7 9 16 13 13 11 8 5 4 4 3 5 6 4 7 6 10 9 4 4 6 11 7 9 14 15 15 12 7 10 10 13 15 18 17 18 14 17 18 19 10 13 19 21
11 9 6 19 17 14 12 11 10 8 4 8 7 4 7 8 10 11 11 12 12 7 12 14 16 16 19 23 22 19 18 19 20 22 25 24 24 22 24 26 16 17 15 16 23
14 3 8 16 19 12 11 12 13 12 9 7 9 9 9 11 11 12 13 13 13 15 11 7 14 15 18 19 22 23 23 23 24 23 24 27 26 23 22 11 9 8 11 15 18
3 6 6 12 12 18 14 11 11 14 11 9 11 11 11 12 12 13 10 9 11 13 12 13 17 16 23 22 23 27 26 25 25 26 26 25 23 11 15 14 13 12 14 19 21
16 15 8 7 9 14 17 17 15 13 15 9 14 12 9 11 9 12 12 14 15 16 19 18 20 21 26 24 25 26 23 22 19 10 12 15 15 16 19 18 16 17 20 16 19
Wind_Direction
165 161 151 154 148 140 140 142 145 147 148 147 142 135 129 124 133 157 177 153 165 157 87 129 116 132 107 66 254 225 355 59 84 121 108 117 102 98 116 123 124 138 237 164 163
170 166 159 158 149 143 141 144 146 147 148 142 138 129 115 114 84 226 155 175 175 167 150 86 70 115 105 178 87 125 31 66 51 116 121 125 105 123 106 128 125 125 174 213 162
173 170 164 160 153 145 143 147 149 149 147 141 133 113 104 92 45 278 272 193 179 153 149 74 176 237 235 172 126 15 61 87 79 113 131 124 86 158 28 160 154 157 159 167 160
175 174 168 165 158 151 151 153 154 151 148 144 132 119 98 71 42 283 227 200 168 138 129 89 301 257 91 135 41 287 62 84 102 113 123 119 123 108 66 84 159 182 127 159 159
179 176 173 171 164 156 157 160 161 158 157 150 138 127 110 65 323 262 194 175 170 146 73 10 308 153 287 116 214 91 93 121 131 135 140 140 99 142 100 116 155 167 161 158 162
183 179 174 175 168 160 162 163 167 168 163 155 147 128 83 30 268 249 175 179 171 115 40 330 340 321 328 299 21 16 143 166 153 163 178 163 127 149 152 145 152 161 165 167 170
185 180 176 178 170 163 163 164 169 170 165 160 151 141 25 59 246 174 134 144 142 87 38 354 292 300 337 23 13 327 221 168 178 191 209 230 209 230 144 180 164 161 169 179 182
184 182 176 179 169 164 162 163 166 169 169 160 146 125 62 267 199 183 149 102 124 136 293 334 313 317 313 327 271 354 151 290 182 256 208 246 209 250 145 188 180 171 184 191 194
184 181 177 178 170 164 160 160 163 158 159 154 140 100 313 296 224 206 184 216 284 312 314 309 341 308 312 356 347 234 158 269 241 251 287 232 272 191 145 210 199 178 192 200 203
183 182 176 177 171 166 160 156 158 158 155 146 129 330 262 271 219 204 207 227 259 323 275 275 281 332 341 308 220 137 194 250 196 54 209 233 282 269 264 283 170 194 197 195 199
183 180 177 175 170 166 159 149 143 169 167 129 318 336 296 185 199 208 224 243 259 280 280 319 325 170 354 1 331 87 60 295 236 304 271 256 298 305 277 346 226 192 204 198 201
181 179 177 174 169 164 154 133 163 151 211 200 170 214 196 208 209 221 209 218 246 264 290 313 235 2 327 354 348 25 61 315 304 151 310 20 1 328 279 277 223 231 217 215 201
177 177 175 171 168 165 165 184 172 183 213 240 223 218 215 186 229 217 192 219 298 257 249 137 56 28 311 347 344 357 338 339 343 304 349 333 43 354 33 50 321 292 263 269 223
176 171 169 164 158 161 166 149 157 171 258 198 195 207 205 174 216 198 200 220 253 301 59 270 72 169 331 325 332 332 328 318 323 350 194 252 151 354 120 162 109 214 221 255 273
172 168 165 165 155 137 178 162 161 160 282 175 177 186 186 201 183 194 210 213 236 203 74 267 142 283 331 348 320 335 314 310 305 283 198 343 128 137 106 136 73 69 47 306 245
168 168 165 161 159 156 159 164 167 240 200 160 187 182 179 195 175 185 195 225 252 254 230 261 257 287 318 316 307 315 296 293 294 278 344 69 147 162 127 103 42 1 351 319 311
167 164 161 161 159 161 159 162 217 250 147 166 179 170 184 186 186 187 209 225 213 324 306 273 253 209 312 304 316 320 327 317 283 77 293 53 90 108 120 116 68 29 351 338 328
164 165 165 166 160 159 160 186 253 358 181 158 174 175 202 179 192 226 218 235 138 170 115 256 219 217 196 326 318 324 336 340 334 356 284 177 89 135 145 92 95 26 358 348 330
163 165 165 164 166 168 171 227 277 182 117 173 169 196 196 205 185 242 238 218 190 241 245 174 267 235 259 296 293 318 304 338 312 298 298 10 24 85 104 127 23 0 346 334 305
159 162 169 168 170 177 208 256 324 292 155 182 212 202 215 200 208 234 251 261 239 227 275 312 322 302 212 304 288 239 317 328 339 309 328 346 319 87 74 352 326 336 338 308 304
157 123 202 182 179 189 222 273 281 208 180 207 231 272 245 220 224 237 252 239 259 275 329 296 292 295 237 280 271 207 295 307 294 281 294 285 321 53 26 351 347 332 310 293 298
136 168 237 195 197 212 233 275 239 242 210 255 277 270 239 294 280 264 288 312 185 265 290 288 300 296 295 296 274 275 296 301 299 302 302 309 300 319 327 353 329 323 299 299 298
142 183 242 206 208 209 234 251 214 209 229 220 238 250 287 267 288 266 276 259 284 301 283 298 293 314 311 287 247 265 287 291 292 295 289 290 288 289 321 324 325 308 310 307 301
141 192 235 209 211 263 234 240 231 227 247 230 248 269 260 268 263 266 263 266 284 286 281 270 271 276 281 292 310 304 292 287 290 290 291 288 298 309 317 315 304 303 295 300 303
134 198 241 215 220 229 232 248 229 222 242 255 256 260 269 275 274 265 264 274 270 276 285 292 270 278 277 284 291 293 291 288 286 281 280 289 294 303 315 318 312 298 294 310 313
174 196 202 212 230 233 237 249 242 230 244 255 255 270 267 273 268 273 276 276 273 280 277 282 281 281 281 285 287 288 288 284 285 281 282 288 290 302 317 309 326 319 319 307 302
217 205 211 204 240 225 237 240 243 244 253 275 256 271 263 292 267 261 270 264 269 275 273 277 279 285 285 290 294 287 285 282 290 288 294 304 313 324 309 313 329 321 317 299 296
Height
3152 3152 3153 3154 3156 3158 3160 3161 3162 3164 3166 3167 3169 3171 3172 3172 3171 3171 3170 3170 3168 3168 3168 3168 3171 3172 3171 3172 3179 3177 3172 3169 3167 3172 3175 3177 3177 3179 3179 3180 3183 3183 3181 3181 3181
3152 3153 3154 3155 3157 3159 3161 3163 3164 3166 3167 3169 3171 3173 3173 3173 3173 3171 3171 3169 3168 3168 3169 3170 3175 3176 3174 3173 3174 3174 3170 3169 3172 3175 3176 3178 3179 3180 3182 3182 3182 3183 3182 3182 3182
3153 3154 3154 3156 3158 3160 3162 3164 3165 3167 3170 3171 3173 3173 3174 3175 3174 3171 3170 3170 3169 3170 3169 3171 3175 3176 3171 3173 3178 3175 3172 3177 3179 3179 3179 3179 3181 3178 3181 3179 3183 3182 3182 3182 3183
3153 3154 3155 3157 3159 3161 3163 3166 3167 3169 3171 3173 3174 3175 3176 3175 3179 3173 3171 3171 3171 3172 3174 3172 3179 3138 3173 3174 3178 3177 3177 3182 3182 3182 3182 3180 3182 3181 3183 3184 3184 3182 3181 3182 3183
3153 3155 3156 3158 3160 3162 3164 3167 3169 3171 3173 3174 3176 3177 3177 3176 3178 3173 3172 3172 3172 3174 3175 3178 3178 3153 3166 3178 3181 3179 3180 3182 3183 3182 3183 3182 3183 3184 3184 3185 3184 3183 3182 3183 3185
3153 3155 3156 3158 3160 3163 3165 3168 3170 3172 3174 3176 3177 3178 3178 3178 3176 3175 3174 3173 3173 3176 3178 3185 3191 3185 3172 3182 3184 3179 3181 3183 3183 3183 3182 3182 3185 3185 3185 3186 3184 3184 3185 3186 3187
3153 3155 3156 3158 3161 3164 3166 3169 3171 3173 3175 3177 3179 3179 3178 3179 3178 3176 3176 3175 3174 3176 3181 3185 3188 3188 3186 3180 3185 3176 3178 3181 3183 3184 3182 3181 3184 3181 3184 3189 3188 3186 3187 3189 3190
3153 3155 3157 3159 3161 3164 3167 3169 3172 3174 3176 3178 3179 3180 3179 3179 3178 3178 3178 3178 3178 3177 3179 3182 3184 3183 3183 3182 3178 3179 3183 3181 3182 3179 3176 3183 3180 3187 3187 3190 3188 3188 3189 3190 3191
3152 3154 3157 3159 3162 3165 3168 3170 3173 3175 3178 3179 3181 3181 3182 3181 3179 3179 3180 3183 3183 3182 3183 3183 3183 3182 3179 3177 3181 3176 3186 3182 3184 3175 3179 3176 3176 3175 3173 3178 3185 3185 3187 3189 3190
3152 3154 3157 3159 3162 3165 3169 3172 3174 3177 3179 3181 3182 3183 3181 3183 3182 3182 3183 3184 3186 3186 3186 3185 3179 3182 3180 3180 3178 3177 3181 3181 3180 3178 3176 3177 3178 3174 3175 3168 3171 3180 3183 3185 3188
3151 3154 3157 3160 3163 3166 3170 3173 3180 3181 3180 3180 3184 3183 3183 3184 3183 3183 3184 3186 3188 3188 3185 3178 3184 3182 3179 3175 3179 3183 3184 3181 3177 3175 3176 3175 3177 3177 3172 3170 3160 3174 3179 3182 3184
3151 3154 3157 3160 3164 3167 3171 3173 3180 3182 3181 3180 3182 3185 3184 3183 3184 3185 3186 3188 3189 3187 3186 3183 3182 3181 3180 3179 3178 3178 3181 3177 3175 3176 3176 3178 3176 3175 3174 3173 3167 3175 3179 3180 3178
3151 3154 3157 3161 3164 3168 3171 3172 3174 3179 3181 3181 3182 3183 3184 3185 3186 3186 3186 3188 3188 3186 3185 3183 3182 3182 3183 3181 3182 3182 3180 3178 3176 3176 3175 3177 3176 3178 3178 3178 3179 3180 3177 3177 3178
3151 3155 3158 3161 3168 3170 3174 3175 3176 3178 3179 3181 3181 3182 3183 3184 3185 3185 3186 3189 3188 3186 3185 3185 3182 3184 3184 3184 3183 3181 3179 3177 3174 3173 3173 3173 3181 3180 3175 3178 3180 3181 3180 3180 3176
3151 3155 3159 3163 3166 3169 3177 3176 3178 3180 3177 3180 3181 3182 3183 3185 3185 3186 3187 3188 3188 3187 3190 3187 3185 3184 3184 3183 3182 3180 3177 3176 3172 3169 3170 3170 3175 3178 3176 3180 3181 3181 3180 3180 3178
3152 3155 3159 3164 3168 3170 3173 3177 3181 3184 3174 3177 3178 3179 3183 3183 3184 3185 3186 3187 3189 3187 3187 3188 3185 3186 3184 3183 3181 3180 3175 3171 3167 3168 3170 3168 3168 3174 3177 3179 3180 3180 3179 3177 3175
3153 3157 3161 3165 3167 3171 3174 3179 3183 3176 3173 3175 3177 3179 3180 3180 3183 3185 3186 3186 3188 3192 3185 3183 3181 3183 3183 3182 3180 3178 3172 3168 3163 3164 3173 3166 3165 3171 3173 3175 3177 3177 3177 3174 3173
3154 3158 3162 3166 3169 3171 3175 3180 3178 3169 3171 3172 3175 3178 3178 3180 3183 3185 3185 3184 3186 3187 3185 3184 3182 3180 3181 3182 3181 3178 3175 3170 3165 3163 3163 3162 3166 3169 3170 3172 3175 3176 3176 3173 3170
3156 3160 3164 3168 3171 3173 3176 3177 3173 3171 3171 3172 3173 3175 3177 3179 3181 3184 3180 3181 3181 3184 3186 3182 3183 3180 3180 3180 3182 3178 3177 3175 3172 3164 3162 3162 3166 3168 3170 3173 3172 3173 3173 3173 3170
3158 3163 3166 3169 3172 3174 3178 3174 3173 3173 3173 3174 3173 3173 3175 3177 3177 3179 3179 3179 3180 3180 3181 3179 3178 3177 3177 3179 3177 3178 3179 3176 3172 3168 3169 3164 3167 3168 3171 3171 3171 3171 3170 3168 3168
3160 3165 3169 3170 3172 3175 3174 3174 3174 3175 3176 3176 3175 3174 3174 3174 3174 3176 3178 3178 3179 3180 3180 3181 3180 3178 3176 3175 3174 3175 3175 3175 3173 3172 3170 3168 3166 3166 3167 3169 3168 3169 3167 3164 3163
3161 3169 3169 3171 3174 3174 3174 3174 3175 3176 3176 3176 3175 3174 3175 3174 3174 3176 3176 3176 3176 3180 3181 3180 3179 3176 3174 3171 3172 3174 3176 3176 3173 3172 3169 3168 3168 3166 3165 3167 3165 3165 3160 3158 3156
3162 3169 3168 3170 3173 3174 3175 3175 3175 3176 3177 3177 3178 3178 3177 3177 3179 3178 3177 3175 3177 3180 3180 3180 3178 3174 3172 3168 3171 3172 3173 3173 3172 3170 3169 3169 3167 3166 3164 3163 3161 3158 3157 3153 3151
3164 3169 3168 3169 3170 3172 3172 3174 3175 3175 3175 3176 3177 3177 3178 3178 3178 3178 3178 3178 3177 3176 3177 3179 3178 3179 3177 3172 3172 3171 3170 3170 3169 3167 3164 3162 3161 3161 3160 3160 3157 3155 3153 3150 3145
3163 3168 3167 3168 3169 3171 3171 3172 3173 3174 3175 3176 3177 3177 3177 3176 3176 3175 3176 3176 3176 3173 3173 3176 3175 3175 3173 3172 3169 3168 3167 3166 3164 3163 3162 3160 3160 3160 3159 3153 3152 3151 3149 3148 3145
3160 3162 3163 3166 3169 3170 3170 3170 3171 3172 3173 3173 3175 3175 3174 3175 3175 3174 3174 3173 3174 3173 3173 3173 3171 3171 3169 3168 3166 3163 3161 3160 3159 3157 3155 3155 3155 3156 3152 3149 3147 3147 3146 3145 3141
3157 3161 3162 3164 3166 3168 3168 3170 3170 3171 3171 3171 3172 3172 3173 3171 3170 3171 3171 3171 3171 3171 3170 3170 3168 3168 3164 3165 3162 3159 3157 3154 3152 3151 3152 3152 3151 3150 3147 3145 3145 3143 3142 3141 3136